Preview of NWS' New Version of Forecast
This preview is not operational and should not be used for support decisions.

Regional Weather Roundup (RWR)

Issued by Baltimore/Washington (LWX)

                            
000
ASUS41 KLWX 220411
RWRLWX

REGIONAL WEATHER ROUNDUP
NATIONAL WEATHER SERVICE BALTIMORE MD/WASHINGTON DC
1100 PM EST MON JAN 21 2019

Note: "FAIR" indicates few or no clouds below 12,000 feet
with no significant weather and/or obstructions to visibility.
 TC=TEMPERATURE CELSIUS

 * =Non NWS site. Station does not report precipitation (e.g. rain,
    snow, etc.), thunder, or fog.

DCZ001-MDZ009-015-VAZ040>042-051-053>054-220500-
WASHINGTON METRO
  
CITY           SKY/WX    TMP DP  RH WIND       PRES   REMARKS
WASHINGTON NAT FAIR      18   0  45 NW13      30.60R WCI   5          
DULLES         FAIR      14   2  58 NW7       30.58R WCI   4          
ANDREWS AFB    FAIR      16   0  49 NW13      30.55R WCI   2          
FT BELVOIR     FAIR      16  -1  46 W6        30.60R WCI   8          
QUANTICO       FAIR      18   2  49 N5        30.63R WCI  11          
LEESBURG*      FAIR      18   5  57 NW10      30.59R WCI   6          
MANASSAS*      FAIR      15   3  59 NW12      30.60R WCI   2          
GAITHERSBURG*  FAIR      13   2  61 NW9       30.55R WCI   1          

$$

MDZ006>007-011-014-220500-
BALTIMORE METRO
  
CITY           SKY/WX    TMP DP  RH WIND       PRES   REMARKS
BWI AIRPORT    FAIR      15  -1  49 NW6       30.55S WCI   6          
MD SCIENCE CTR   N/A     18  -2  41 MISG      30.56R                  
ANNAPOLIS      FAIR      21   2  43 W8        30.56S WCI  11          

$$

MDZ012-015-019>023-220500-
MARYLAND EASTERN SHORE
  
CITY           SKY/WX    TMP DP  RH WIND       PRES   REMARKS
OCEAN CITY     FAIR      18   1  47 NW12      30.52R WCI   5          
SALISBURY      FAIR      19   2  47 NW12G22   30.53R WCI   7          
EASTON*        FAIR      19   0  42 NW13G23   30.58R WCI   7          

$$

MDZ017>025-220500-
SOUTHERN MARYLAND
  
CITY           SKY/WX    TMP DP  RH WIND       PRES   REMARKS
PATUXENT RIVER FAIR      19   3  49 NW14G26   30.56R WCI   6          
ST INIGOES     NOT AVBL                                               
LEONARDTOWN*   NOT AVBL                                               

$$

MDZ003>005-220500-
NORTH CENTRAL MARYLAND
  
CITY           SKY/WX    TMP DP  RH WIND       PRES   REMARKS
FREDERICK*     NOT AVBL                                               
HAGERSTOWN APT FAIR      12  -2  53 NW12      30.54R WCI  -2          
WESTMINSTER*   FAIR      12  -6  44 NW12      30.50R WCI  -2          

$$

MDZ501>502-220500-
WESTERN MARYLAND
  
CITY           SKY/WX    TMP DP  RH WIND       PRES   REMARKS
OAKLAND*       FAIR       0  -4  85 CALM      30.35R                  
CUMBERLAND*    NOT AVBL                                               

$$

VAZ025>031-220500-
SHENANDOAH VALLEY
  
CITY           SKY/WX    TMP DP  RH WIND       PRES   REMARKS
WINCHESTER*    FAIR      12   1  62 NW9       30.57R WCI   0          
FRONT ROYAL*   FAIR      14   1  57 MISG      30.55R                  
LURAY*         FAIR      14   5  67 NE3       30.53S                  
NEW MARKET*    FAIR      10   2  69 CALM      30.53R                  
WAYNESBORO*    FAIR      11   0  60 SE6       30.49R WCI   1          

$$

WVZ021-048>050-054>055-220500-
EASTERN WEST VIRGINIA PANHANDLE
  
CITY           SKY/WX    TMP DP  RH WIND       PRES   REMARKS
MARTINSBURG    FAIR      12   0  58 NW10      30.56R WCI  -1          

$$

VAZ036>039-050-220500-
CENTRAL FOOTHILLS
  
CITY           SKY/WX    TMP DP  RH WIND       PRES   REMARKS
CHARLOTTESVILL FAIR      19  -3  38 NW5       30.53S WCI  12          
CULPEPER*      FAIR      15   1  55 CALM      30.59R                  
ORANGE*        FAIR      12   7  79 CALM      30.55S                  
GORDONSVILLE*  FAIR      13   5  69 MISG      30.55R                  
WARRENTON*     FAIR      17  -1  45 N6        30.58R WCI   9          

$$

VAZ055>057-220500-
NORTH AND CENTRAL PIEDMONT
  
CITY           SKY/WX    TMP DP  RH WIND       PRES   REMARKS
FREDERICKSBRG* FAIR      19   3  50 N6        30.61R WCI  10          
STAFFORD*      FAIR      15   4  61 N5        30.64R WCI   7          

$$

NCZ024-NYZ072-PAZ021-071-VAZ022-071-220500-
OTHER REGIONAL OBSERVATIONS
  
CITY           SKY/WX    TMP DP  RH WIND       PRES   REMARKS
NEW YORK CITY  FAIR      13  -2  51 MISG      30.38R                  
PHILADELPHIA   FAIR      15  -7  37 NW15      30.51R WCI   0          
PITTSBURGH     FAIR       3  -1  83 CALM      30.54S                  
ROANOKE        FAIR      17  -2  43 N8        30.53R WCI   7          
RICHMOND       FAIR      19   1  45 NE10      30.58R WCI   7          
RALEIGH        FAIR      20   5  52 N3        30.55R                  

$$

ANZ530>537-220500-
MARINE OBSERVATIONS
  
STATION/POSITION TIME  TEMP    WIND        PRES
                       AIR SEA DIR/SP/G
                 (UTC) (F)     (DEG/KT/KT) (MB)
THOMAS PT LIGHT  0400   18 37  310/ 11/ 12 1035.8R
BALT KEY BRIDGE  0342   18     300/ 14/ 18 1034.7R
COVE POINT       0342   19     340/ 19/ 28 1035.4R
LEWISETTA        0342   21 34  320/ 17/ 23 1035.5R
SOLOMONS ISLAND  0342   20 38  310/ 11/ 23 1035.0R
PINEY POINT      0342          330/ 23/ 26   N/A

$$